Résultats de la compétition "Régionale 71" du 18-08-2009 organisée par le comité départemental du 71 - Saône-et-Loire
     
  Télécharger le fichier CSV.  
     
     

 Circuit "D"

Licence Nom Prénom Temps CN
précédent
Score sur
la course
Différence
11307BEAUVISAGELauriane0:38:3043545325+971
9932BASSETIsia0:38:3656645311-353
7045LOTERIELaurine0:39:5638465134+1288
9897MORELHelene0:40:1837725087+1315
6753HUEBERNicole0:40:5348195014+195
2712VUILLETChristian0:42:4147574803+46
16756PONCETJ-Pierre0:43:0541534758+605
9976POINSIGNONElise0:43:2941164714+598
1086ROBERTChristian0:44:2950584608-450
14886CONIELLise0:44:3328254602+1777
14738BIHELJulia0:45:0533394547+1208
1005ALLANCONMichel0:45:0638804545+665
12646BLUMVirginie0:45:3039774506+529
4372PETITGuyonne0:45:3344984501+3
1178LEMERCIERBernard0:45:3340894501+412
20246MONNERIECharlotte0:45:5738654461+596
2789EVENGabriel0:45:5736824461+779
2857LEROUXJacques0:46:0948624442-420
1605LEPOUPONAndre0:47:2439014325+424
95CABONHerve0:48:5041054198+93
633DUBROCAMonique0:48:5445154192-323
2368BENACEKVaclav0:48:5736334188+555
9115RAYMONDAUDLea0:49:0347734179-594
751VOLAYAndre0:49:07N/A4174N/A
3108GANZITTIAlexandre0:49:0945554171-384
15479MORELEugenie0:49:3532374134+897
3086JEQUELYann0:49:3939154129+214
5938EGGLIRoland0:49:5149544112-842
2679KIEFFERJ-Paul0:50:0030234100+1077
249GANDONJ-Claude0:50:1733394077+738
6491ROBERTFrancoise0:50:5138304031+201
5597EJSMONTJean0:51:0944564008-448
1693BAUDRYJ-Claude0:51:3932843969+685
17067MANIEREMarie0:52:3746283896-732
15582CIRAUDOAndrea0:52:5234593878+419
2401DEVILLENelly0:53:0345613864-697
14235ANFOSSIGiuseppe0:53:0921913857+1666
2558VOGTClaude0:53:1342143852-362
17681MAIRECamille0:53:5635323801+269
10863DEJARDINEmilie0:54:1028363785+949
1672ANNEBrigitte0:54:4034383750+312
6886FRANTZFrancoise0:55:2834323696+264
21435DEFIXAnne Claire0:56:02N/A3659N/A
4156RICHAUDAlain0:56:2545553634-921
807BOURRINM-Francoise0:56:5537423602-140
13752VILLEDIEUMartine0:57:0034333596+163
561DONNARDJ-Pierre0:57:3637813559-222
16352BAUDOINJ-Paul0:57:5139613544-417
12056SCHMITT-POUPARDFlorence0:58:3734773497+20
8108LELOUPAnouk0:59:2545563450-1106
20484KASTENSSONEllen0:59:28N/A3447N/A
2006TESSIERDaniel0:59:5940163418-598
1938LEFRANCOISGerard1:00:0136603416-244
1381DIEUDONNERoland1:01:1036683352-316
646LARMINACHAndre1:01:2040733342-731
2445RIFFARDJ-Claude1:01:4231833323+140
4272CLERCAnne1:01:4439523321-631
2557VOGTChristiane1:01:5836223308-314
1380DIEUDONNEMadeleine1:01:5940923307-785
3356CHARIAUMichel1:02:3833173273-44
1000LEFOUESTJoseph1:03:0938093246-563
395BLASCONicole1:03:3537923224-568
5508DEUBELBEISSAlain1:04:2240343185-849
16403EUZENJ-Paul1:04:4629123165+253
396BLASCOSerge1:04:5748493156-1693
5033THIEBAULTMonique1:05:3040263130-896
8761BRUNELMarie-Jo1:06:0729513101+150
11369GUIGNARDM-Christine1:06:0931303099-31
89TAUZIN-LAMYChristine1:06:39N/A3076N/A
14169LEAUPhilippe1:07:0125533059+506
1087ROBERTMartine1:07:0833493054-295
1673ANNERoger1:07:3733963032-364
225GONNETAndre1:08:22N/A2999N/A
2519DIRRINGERJacques1:09:3838672944-923
1909MEYERCorinne1:09:4133582942-416
12354GROSJEANPierre1:10:1925012915+414
2674GUETINMichel1:10:2426202912+292
4507DUBROCAJ-Michel1:11:14N/A2878N/A
2474LEMERCIERJocelyne1:12:1826842835+151
19129JACQUOTMarie1:12:3514322824+1392
1438BOUSQUETMichel1:13:3633252785-540
2888MOULIEREM-Bernadett1:13:4028362783-53
12102BOUVERETMichelle1:13:5429572774-183
2004TESSIERAriane1:13:5624342773+339
4671POGUPaulette1:15:2423452719+374
20590CRESPINAline1:16:17N/A2687N/A
8138LEGUENJoseph1:16:5236272667-960
96CABONMonique1:18:4019292606+677
2680KIEFFERMireille1:21:4728292507-322
12059GROSJEANA-Marie1:21:4923092506+197
14245RICHARDNicole1:23:2831362456-680
15630DIRRINGERM-Claude1:23:4430042448-556
20215SIXPauline1:26:1416552377+722
10081TORZ-DRUONMagali1:30:0727182275-443
20290MARCKAline1:30:4317612260+499
12359BAYLEOdile1:35:1127872154-633
1001LEFOUESTM-Therese1:37:5417422094+352
2387SUTTEROdile1:38:2326602084-576
368VESCOVOOdile1:38:2822132082-131
2446RIFFARDM-Lucie1:39:4427352055-680
11368LAUNEYNoella1:41:1619752024+49
1416CHAVERNACBruno1:46:2020401928-112
14632ALLANCONClaudine1:47:0015491916+367
5497COCAULTYvonne1:48:0331061897-1209
15894LUDEWIG-JAMESCarol1:50:4523831851-532
13991POUPIERClaudine1:51:0422661846-420
14164EJSMONTMartine1:52:1415611827+266
406TREZEGUETCatherine1:57:4919831740-243
3462DECHAVANNEDenise2:00:2816061702+96
10179BRUNETEvelyne2:07:5516681603-65
1437BOUSQUETHuguetteN/A16170-1617
7182BERGERM-JoseN/A25680-2568
8121LEBIAN DEROMEAnnieN/A24290-2429
20407FERNANDEZAlexiaN/AN/A0N/A
1508AUBRYEdithN/AN/A0N/A
6826DUVOUXFranceN/A26790-2679
8928MASCARELLHenriN/A50420-5042
7520BOUCHESylvieN/A32990-3299
922PREVOSTPascaleN/A54690-5469
16205HUMBERTCLAUDEJ-PaulN/A32760-3276

  Indice de confiance du circuit (moyenne des différences entre CN et score sur la course des 3 à 10 premiers) : 109






 Retour